Location: Barrio de Buenos Aires
(28.4500°N, 16.2667°W)
Time: 03:01:57
(UTC+00:00)

USA 234 - Pass Details

Date: 24 January 2020
Orbit: 1100 x 1107 km, 123.0° (Epoch: 09 February)

Event Time Altitude Azimuth Distance (km) Brightness Sun altitude
Rises 19:00:47 0° 117° (ESE) 3,904 5.7 -5.6°
Reaches altitude 10° 19:03:24 10° 110° (ESE) 2,948 5.1 -6.1°
Maximum altitude 19:09:25 42° 42° (NE) 1,522 3.7 -7.4°
Drops below altitude 10° 19:15:28 10° 335° (NNW) 2,958 5.6 -8.7°
Sets 19:18:05 0° 328° (NNW) 3,919 6.4 -9.2°
